Regional Weather Roundup
Issued by NWS

Home | Current Version | Previous Version | Graphics & Text | Print | Product List | Glossary On
Versions: 1 2 3 4 5 6 7 8 9 10 11 12 13 14 15 16 17 18 19 20 21 22 23 24 25 26 27 28 29 30 31 32 33 34 35 36 37 38 39 40 41 42 43 44 45 46 47 48 49 50
028
ASUS43 KOAX 282102
RWRNE

WEATHER ROUNDUP FOR NEBRASKA
NATIONAL WEATHER SERVICE OMAHA NE
400 PM CDT THU APR 28 2016

NOTES: SATELLITE DATA IS BEING USED TO AUGMENT CLOUD COVER ABOVE
       12000 FEET.
       "FAIR" INDICATES FEW OR NO CLOUDS BELOW 12,000 FEET WITH NO
       SIGNIFICANT WEATHER AND/OR OBSTRUCTIONS TO VISIBILITY.

  * THESE STATIONS DO NOT REPORT WEATHER SUCH AS RAIN...SNOW OR FOG.

NEZ001>004-019>022-054>056-282200-
NEBRASKA PANHANDLE

CITY           SKY/WX    TMP DP  RH WIND       PRES   REMARKS
SCOTTSBLUFF    CLOUDY    44  28  53 VRB3      30.01R
ALLIANCE       CLOUDY    42  30  62 N5        30.01R
CHADRON        CLOUDY    42  35  76 N5        30.03S
KIMBALL        LGT RAIN  37  33  86 E9        30.00S WCI  30
SIDNEY         LGT RAIN  38  34  85 NE5       30.02R WCI  34
$$

NEZ057>060-069>072-079>082-282200-
SOUTHWEST NEBRASKA

CITY           SKY/WX    TMP DP  RH WIND       PRES   REMARKS
NORTH PLATTE   CLOUDY    47  34  60 CALM      30.02R
IMPERIAL       CLOUDY    44  35  70 N5        30.00F
LEXINGTON      CLOUDY    48  38  70 NW6       30.03F
MCCOOK         CLOUDY    51  38  60 N6        30.00F
$$

NEZ005>010-023>029-035>040-094-282200-
NORTH CENTRAL NEBRASKA

CITY           SKY/WX    TMP DP  RH WIND       PRES   REMARKS
VALENTINE      CLOUDY    43  35  73 N13       30.03R
BROKEN BOW     CLOUDY    46  38  73 NW7       30.02R
ORD            CLOUDY    46  39  76 N8        30.02R
$$

NEZ041-046>049-061>064-073>077-083>087-282200-
SOUTH CENTRAL NEBRASKA

CITY           SKY/WX    TMP DP  RH WIND       PRES   REMARKS
GRAND ISLAND   CLOUDY    50  40  68 N8        30.02R
AURORA         CLOUDY    49  42  76 N12       30.02R
HASTINGS       CLOUDY    49  40  71 NW6       30.03R
KEARNEY *      CLOUDY    48  37  66 CALM      30.04R
YORK           CLOUDY    48  41  76 N8        30.01S
$$

NEZ011>018-030>034-042>045-282200-
NORTHEAST NEBRASKA

CITY           SKY/WX    TMP DP  RH WIND       PRES   REMARKS
NORFOLK        CLOUDY    47  38  71 N10       29.99S
ALBION         CLOUDY    46  39  76 N8        30.01S
BLAIR          CLOUDY    48  42  80 NW14      29.98S
COLUMBUS *     CLOUDY    48  36  61 NW12      30.02R
FREMONT        CLOUDY    47  41  77 N10       30.00R
TEKAMAH        CLOUDY    48  42  80 NW13      29.99R
$$

NEZ050>053-065>068-078-088>093-282200-
SOUTHEAST NEBRASKA

CITY           SKY/WX    TMP DP  RH WIND       PRES   REMARKS
LINCOLN        CLOUDY    52  41  66 NW8       30.02R
OMAHA EPPLEY   CLOUDY    50  43  77 NW10      29.98R
FALLS CITY     CLOUDY    54  45  71 NW10      29.98S
$$

NEZ044-045-051>053-067-282200-
OMAHA AREA

CITY           SKY/WX    TMP DP  RH WIND       PRES   REMARKS
OMAHA EPPLEY   CLOUDY    50  43  77 NW10      29.98R
BLAIR          CLOUDY    48  42  80 NW14      29.98S
FREMONT        CLOUDY    47  41  77 N10       30.00R
OFFUTT AFB     CLOUDY    51  43  74 NW8       29.98R
$$




USA.gov is the U.S. government's official web portal to all federal, state and local government web resources and services.